| time (UTC) | temp F | wind direction | speed MPH | gust MPH | rain 1hr in | rain 24hr in | rain mn in | humidity % | barometer mb |
| 20260505115530 | 35 | 277 | 2.0 | 6.0 | 0.00 | 0.00 | 0.00 | 87 | 1005.4 |
| 20260505115028 | 35 | 291 | 2.0 | 6.0 | 0.00 | 0.00 | 0.00 | 89 | 1005.4 |
| 20260505114525 | 35 | 285 | 2.0 | 8.0 | 0.00 | 0.00 | 0.00 | 89 | 1005.4 |
| 20260505114021 | 35 | 270 | 6.0 | 7.0 | 0.00 | 0.00 | 0.00 | 90 | 1005.1 |
| 20260505113517 | 35 | 238 | 6.0 | 10.0 | 0.00 | 0.00 | 0.00 | 90 | 1005.3 |
| 20260505113014 | 35 | 289 | 0.0 | 6.0 | 0.00 | 0.00 | 0.00 | 91 | 1005.2 |
| 20260505112511 | 35 | 273 | 4.0 | 7.0 | 0.00 | 0.00 | 0.00 | 91 | 1005.3 |
| 20260505112009 | 35 | 289 | 3.0 | 4.0 | 0.00 | 0.00 | 0.00 | 91 | 1005.1 |
| 20260505111507 | 35 | 277 | 2.0 | 2.0 | 0.00 | 0.00 | 0.00 | 92 | 1004.9 |
| 20260505111004 | 35 | 288 | 4.0 | 7.0 | 0.00 | 0.00 | 0.00 | 92 | 1004.8 |
| 20260505110500 | 35 | 273 | 3.0 | 7.0 | 0.00 | 0.00 | 0.00 | 92 | 1004.8 |
| 20260505101932 | 34 | 274 | 4.0 | 6.0 | 0.00 | 0.00 | 0.00 | 94 | 1004.4 |
| 20260505101426 | 34 | 266 | 1.0 | 4.0 | 0.00 | 0.00 | 0.00 | 94 | 1004.2 |
| 20260505100922 | 33 | 294 | 2.0 | 4.0 | 0.00 | 0.00 | 0.00 | 94 | 1004.1 |
| 20260505100419 | 33 | 296 | 2.0 | 3.0 | 0.00 | 0.00 | 0.00 | 94 | 1004.0 |
| 20260505095915 | 34 | 271 | 0.0 | 1.0 | 0.00 | 0.00 | 0.00 | 93 | 1004.0 |
| 20260505095412 | 34 | 280 | 1.0 | 3.0 | 0.00 | 0.00 | 0.00 | 92 | 1004.1 |
| 20260505094908 | 34 | 285 | 1.0 | 3.0 | 0.00 | 0.00 | 0.00 | 91 | 1004.1 |
| 20260505094406 | 34 | 288 | 1.0 | 3.0 | 0.00 | 0.00 | 0.00 | 92 | 1004.0 |
| 20260505093901 | 34 | 273 | 2.0 | 2.0 | 0.00 | 0.00 | 0.00 | 91 | 1004.0 |
| 20260505093358 | 35 | 287 | 2.0 | 2.0 | 0.00 | 0.00 | 0.00 | 91 | 1003.9 |
| 20260505092856 | 35 | 265 | 1.0 | 3.0 | 0.00 | 0.00 | 0.00 | 91 | 1004.0 |
| 20260505092354 | 35 | 256 | 3.0 | 3.0 | 0.00 | 0.00 | 0.00 | 91 | 1004.0 |
| 20260505091850 | 34 | 276 | 1.0 | 6.0 | 0.00 | 0.00 | 0.00 | 92 | 1004.0 |
| 20260505091348 | 34 | 290 | 2.0 | 3.0 | 0.00 | 0.00 | 0.00 | 92 | 1004.1 |
| 20260505090846 | 34 | 313 | 0.0 | 2.0 | 0.00 | 0.00 | 0.00 | 92 | 1004.0 |
| 20260505090344 | 34 | 275 | 2.0 | 3.0 | 0.00 | 0.00 | 0.00 | 92 | 1003.8 |
| 20260505085841 | 35 | 285 | 3.0 | 3.0 | 0.00 | 0.00 | 0.00 | 91 | 1003.8 |
| 20260505085339 | 35 | 291 | 2.0 | 4.0 | 0.00 | 0.00 | 0.00 | 91 | 1004.0 |
| 20260505084837 | 35 | 291 | 1.0 | 1.0 | 0.00 | 0.00 | 0.00 | 90 | 1003.9 |
| 20260505084335 | 35 | 291 | 2.0 | 4.0 | 0.00 | 0.00 | 0.00 | 90 | 1003.9 |
| 20260505083832 | 35 | 250 | 1.0 | 2.0 | 0.00 | 0.00 | 0.00 | 90 | 1003.8 |
| 20260505083329 | 35 | 263 | 1.0 | 4.0 | 0.00 | 0.00 | 0.00 | 90 | 1003.9 |
| 20260505082826 | 35 | 290 | 2.0 | 4.0 | 0.00 | 0.00 | 0.00 | 89 | 1003.9 |
| 20260505082322 | 35 | 286 | 2.0 | 3.0 | 0.00 | 0.00 | 0.00 | 89 | 1004.1 |
| 20260505081819 | 35 | 266 | 1.0 | 4.0 | 0.00 | 0.00 | 0.00 | 88 | 1003.7 |
| 20260505081315 | 34 | 279 | 2.0 | 3.0 | 0.00 | 0.00 | 0.00 | 88 | 1003.8 |
| 20260505080812 | 34 | 278 | 2.0 | 3.0 | 0.00 | 0.00 | 0.00 | 88 | 1003.8 |
| 20260505080308 | 34 | 292 | 3.0 | 4.0 | 0.00 | 0.00 | 0.00 | 88 | 1003.8 |
| 20260505075803 | 34 | 306 | 2.0 | 4.0 | 0.00 | 0.00 | 0.00 | 88 | 1003.6 |
| 20260505075301 | 34 | 289 | 1.0 | 4.0 | 0.00 | 0.00 | 0.00 | 88 | 1003.8 |
| 20260505074758 | 34 | 290 | 4.0 | 6.0 | 0.00 | 0.00 | 0.00 | 88 | 1003.7 |
| 20260505074255 | 34 | 278 | 1.0 | 6.0 | 0.00 | 0.00 | 0.00 | 88 | 1003.6 |
| 20260505073753 | 34 | 269 | 3.0 | 3.0 | 0.00 | 0.00 | 0.00 | 88 | 1003.8 |
| 20260505073250 | 34 | 276 | 3.0 | 3.0 | 0.00 | 0.00 | 0.00 | 89 | 1003.7 |
| 20260505072747 | 34 | 269 | 1.0 | 3.0 | 0.00 | 0.00 | 0.00 | 88 | 1003.9 |
| 20260505072243 | 34 | 295 | 5.0 | 7.0 | 0.00 | 0.00 | 0.00 | 88 | 1003.8 |
| 20260505071739 | 34 | 263 | 1.0 | 3.0 | 0.00 | 0.00 | 0.00 | 87 | 1003.6 |
| 20260505071236 | 35 | 281 | 2.0 | 3.0 | 0.00 | 0.00 | 0.00 | 86 | 1003.7 |
| 20260505070733 | 35 | 291 | 1.0 | 7.0 | 0.00 | 0.00 | 0.00 | 86 | 1003.6 |
| 20260505070230 | 35 | 300 | 4.0 | 4.0 | 0.00 | 0.00 | 0.00 | 85 | 1003.8 |
| 20260505065725 | 35 | 295 | 4.0 | 4.0 | 0.00 | 0.00 | 0.00 | 85 | 1003.8 |
| 20260505065222 | 35 | 308 | 4.0 | 7.0 | 0.00 | 0.00 | 0.00 | 84 | 1003.7 |
| 20260505064719 | 35 | 309 | 4.0 | 6.0 | 0.00 | 0.00 | 0.00 | 83 | 1003.6 |
| 20260505064217 | 35 | 268 | 2.0 | 7.0 | 0.00 | 0.00 | 0.00 | 82 | 1003.5 |
| 20260505063714 | 35 | 297 | 2.0 | 6.0 | 0.00 | 0.00 | 0.00 | 83 | 1003.5 |
| 20260505063210 | 35 | 288 | 4.0 | 8.0 | 0.00 | 0.00 | 0.00 | 82 | 1003.4 |
| 20260505062707 | 36 | 289 | 2.0 | 10.0 | 0.00 | 0.00 | 0.00 | 82 | 1003.4 |
| 20260505062205 | 36 | 297 | 3.0 | 8.0 | 0.00 | 0.00 | 0.00 | 82 | 1003.3 |
| 20260505061701 | 36 | 298 | 6.0 | 10.0 | 0.00 | 0.00 | 0.00 | 81 | 1003.2 |
| 20260505061200 | 36 | 262 | 2.0 | 13.0 | 0.00 | 0.00 | 0.00 | 82 | 1003.2 |
| 20260505060657 | 36 | 314 | 4.0 | 7.0 | 0.00 | 0.00 | 0.00 | 84 | 1003.2 |
| 20260505060153 | 36 | 248 | 1.0 | 6.0 | 0.00 | 0.00 | 0.00 | 85 | 1003.2 |
| 20260505055648 | 36 | 223 | 2.0 | 3.0 | 0.00 | 0.00 | 0.00 | 87 | 1003.2 |
| 20260505055145 | 36 | 299 | 5.0 | 7.0 | 0.00 | 0.00 | 0.00 | 86 | 1003.0 |
| 20260505054643 | 36 | 298 | 3.0 | 9.0 | 0.00 | 0.00 | 0.00 | 87 | 1003.2 |
| 20260505054141 | 36 | 266 | 2.0 | 7.0 | 0.00 | 0.00 | 0.00 | 87 | 1003.1 |
| 20260505053638 | 36 | 263 | 2.0 | 11.0 | 0.00 | 0.00 | 0.00 | 85 | 1002.9 |
| 20260505053134 | 36 | 325 | 4.0 | 6.0 | 0.00 | 0.00 | 0.00 | 85 | 1002.9 |
| 20260505052632 | 37 | 335 | 4.0 | 9.0 | 0.00 | 0.00 | 0.00 | 86 | 1002.8 |
| 20260505052129 | 37 | 275 | 4.0 | 8.0 | 0.00 | 0.00 | 0.00 | 87 | 1002.8 |
| 20260505051625 | 37 | 322 | 4.0 | 13.0 | 0.00 | 0.00 | 0.00 | 87 | 1002.6 |
| 20260505051124 | 37 | 325 | 2.0 | 7.0 | 0.00 | 0.00 | 0.00 | 87 | 1002.5 |
| 20260505050621 | 37 | 281 | 5.0 | 10.0 | 0.00 | 0.00 | 0.00 | 85 | 1002.7 |
| 20260505050119 | 37 | 249 | 4.0 | 14.0 | 0.00 | 0.00 | 0.00 | 85 | 1002.5 |
| 20260505041549 | 38 | 257 | 9.0 | 11.0 | 0.00 | 0.00 | 0.00 | 83 | 1002.3 |
| 20260505041046 | 38 | 260 | 5.0 | 7.0 | 0.00 | 0.00 | 0.00 | 83 | 1002.2 |
| 20260505040544 | 38 | 276 | 3.0 | 9.0 | 0.00 | 0.00 | 0.00 | 82 | 1002.3 |
| 20260505040041 | 38 | 275 | 4.0 | 8.0 | 0.00 | 0.00 | 0.00 | 82 | 1002.1 |
| 20260505035537 | 38 | 279 | 4.0 | 7.0 | 0.00 | 0.08 | 0.08 | 82 | 1002.2 |
| 20260505035034 | 38 | 286 | 6.0 | 9.0 | 0.00 | 0.08 | 0.08 | 82 | 1002.4 |
| 20260505034530 | 38 | 286 | 3.0 | 8.0 | 0.00 | 0.08 | 0.08 | 82 | 1002.2 |
| 20260505034027 | 38 | 272 | 4.0 | 13.0 | 0.00 | 0.08 | 0.08 | 82 | 1002.1 |
| 20260505033524 | 38 | 331 | 4.0 | 7.0 | 0.00 | 0.08 | 0.08 | 83 | 1002.1 |
| 20260505033022 | 38 | 310 | 4.0 | 6.0 | 0.00 | 0.08 | 0.08 | 82 | 1002.1 |
| 20260505032520 | 38 | 293 | 4.0 | 6.0 | 0.00 | 0.08 | 0.08 | 82 | 1002.1 |
| 20260505032016 | 39 | 266 | 3.0 | 6.0 | 0.00 | 0.08 | 0.08 | 81 | 1001.9 |
| 20260505031513 | 39 | 314 | 6.0 | 10.0 | 0.00 | 0.08 | 0.08 | 80 | 1002.0 |
| 20260505031009 | 39 | 268 | 1.0 | 8.0 | 0.00 | 0.08 | 0.08 | 79 | 1002.1 |
| 20260505030506 | 39 | 312 | 4.0 | 10.0 | 0.00 | 0.08 | 0.08 | 79 | 1002.2 |
| 20260505030001 | 39 | 276 | 5.0 | 11.0 | 0.00 | 0.08 | 0.08 | 78 | 1001.9 |
| 20260505025458 | 39 | 300 | 6.0 | 17.0 | 0.00 | 0.08 | 0.08 | 77 | 1002.1 |
| 20260505024958 | 40 | 306 | 4.0 | 10.0 | 0.00 | 0.08 | 0.08 | 77 | 1001.8 |
| 20260505024454 | 40 | 268 | 12.0 | 22.0 | 0.00 | 0.08 | 0.08 | 75 | 1001.7 |
| 20260505023951 | 40 | 348 | 6.0 | 16.0 | 0.00 | 0.08 | 0.08 | 73 | 1001.6 |
| 20260505023448 | 41 | 301 | 11.0 | 15.0 | 0.00 | 0.08 | 0.08 | 72 | 1001.3 |
| 20260505022946 | 41 | 269 | 10.0 | 13.0 | 0.00 | 0.08 | 0.08 | 72 | 1001.5 |
| 20260505022443 | 41 | 243 | 6.0 | 15.0 | 0.00 | 0.08 | 0.08 | 71 | 1001.3 |
| 20260505021940 | 41 | 303 | 3.0 | 11.0 | 0.00 | 0.08 | 0.08 | 71 | 1001.1 |
| 20260505021436 | 41 | 136 | 6.0 | 14.0 | 0.00 | 0.08 | 0.08 | 71 | 1001.1 |
| 20260505020932 | 41 | 254 | 7.0 | 14.0 | 0.00 | 0.08 | 0.08 | 71 | 1001.1 |
| 20260505020428 | 41 | 222 | 6.0 | 17.0 | 0.00 | 0.08 | 0.08 | 71 | 1001.0 |
| 20260505015925 | 41 | 307 | 7.0 | 19.0 | 0.00 | 0.08 | 0.08 | 71 | 1000.8 |
| 20260505015422 | 41 | 276 | 11.0 | 17.0 | 0.00 | 0.08 | 0.08 | 71 | 1001.0 |
| 20260505014919 | 42 | 278 | 4.0 | 13.0 | 0.00 | 0.08 | 0.08 | 71 | 1000.8 |
| 20260505014416 | 42 | 7 | 5.0 | 11.0 | 0.00 | 0.08 | 0.08 | 70 | 1000.9 |
| 20260505013913 | 42 | 283 | 5.0 | 14.0 | 0.00 | 0.08 | 0.08 | 70 | 1000.5 |
| 20260505013410 | 42 | 239 | 3.0 | 11.0 | 0.00 | 0.08 | 0.08 | 71 | 1000.6 |
| 20260505012908 | 42 | 301 | 10.0 | 18.0 | 0.00 | 0.08 | 0.08 | 69 | 1000.6 |
| 20260505012406 | 42 | 289 | 9.0 | 17.0 | 0.00 | 0.08 | 0.08 | 68 | 1000.6 |
| 20260505011901 | 43 | 331 | 13.0 | 21.0 | 0.00 | 0.08 | 0.08 | 68 | 1000.6 |
| 20260505011358 | 43 | 284 | 7.0 | 11.0 | 0.00 | 0.08 | 0.08 | 68 | 1000.5 |
| 20260505010855 | 43 | 265 | 3.0 | 13.0 | 0.00 | 0.08 | 0.08 | 69 | 1000.6 |
| 20260505010350 | 43 | 272 | 9.0 | 14.0 | 0.00 | 0.08 | 0.08 | 68 | 1000.5 |
| 20260505005847 | 43 | 311 | 11.0 | 14.0 | 0.00 | 0.08 | 0.08 | 68 | 1000.2 |
| 20260505005344 | 43 | 279 | 6.0 | 14.0 | 0.00 | 0.08 | 0.08 | 68 | 1000.2 |
| 20260505004841 | 43 | 239 | 7.0 | 16.0 | 0.00 | 0.08 | 0.08 | 69 | 1000.3 |
| 20260505004337 | 43 | 251 | 6.0 | 16.0 | 0.00 | 0.08 | 0.08 | 69 | 1000.1 |
| 20260505003835 | 43 | 358 | 7.0 | 14.0 | 0.00 | 0.08 | 0.08 | 69 | 1000.3 |
| 20260505003332 | 43 | 301 | 9.0 | 16.0 | 0.00 | 0.08 | 0.08 | 69 | 1000.3 |
| 20260505002828 | 43 | 317 | 6.0 | 15.0 | 0.00 | 0.08 | 0.08 | 67 | 1000.2 |
| 20260505002325 | 44 | 287 | 13.0 | 22.0 | 0.00 | 0.08 | 0.08 | 66 | 1000.2 |
| 20260505001823 | 44 | 284 | 16.0 | 19.0 | 0.00 | 0.08 | 0.08 | 67 | 1000.1 |
| 20260505001320 | 44 | 259 | 8.0 | 14.0 | 0.00 | 0.08 | 0.08 | 68 | 1000.0 |
| 20260505000817 | 44 | 301 | 4.0 | 19.0 | 0.00 | 0.08 | 0.08 | 67 | 999.9 |
| 20260505000315 | 45 | 255 | 10.0 | 17.0 | 0.00 | 0.08 | 0.08 | 66 | 999.9 |
| 20260504235811 | 45 | 335 | 10.0 | 17.0 | 0.00 | 0.08 | 0.08 | 65 | 999.9 |
| 20260504235308 | 45 | 335 | 9.0 | 15.0 | 0.00 | 0.08 | 0.08 | 65 | 999.9 |
| 20260504234805 | 46 | 237 | 9.0 | 14.0 | 0.00 | 0.08 | 0.08 | 64 | 999.9 |
| 20260504234303 | 46 | 292 | 6.0 | 29.0 | 0.00 | 0.08 | 0.08 | 64 | 999.8 |
| 20260504233759 | 46 | 266 | 11.0 | 22.0 | 0.00 | 0.08 | 0.08 | 64 | 999.9 |
| 20260504233255 | 46 | 252 | 5.0 | 14.0 | 0.00 | 0.08 | 0.08 | 64 | 999.8 |
| 20260504232752 | 46 | 265 | 12.0 | 17.0 | 0.00 | 0.08 | 0.08 | 63 | 999.7 |
| 20260504232249 | 47 | 288 | 14.0 | 18.0 | 0.00 | 0.08 | 0.08 | 62 | 999.5 |
| 20260504231746 | 47 | 221 | 4.0 | 15.0 | 0.00 | 0.08 | 0.08 | 63 | 999.5 |
| 20260504231242 | 47 | 289 | 6.0 | 17.0 | 0.00 | 0.08 | 0.08 | 62 | 999.5 |
| 20260504230738 | 47 | 274 | 7.0 | 18.0 | 0.00 | 0.08 | 0.08 | 61 | 999.7 |
| 20260504230237 | 48 | 267 | 7.0 | 11.0 | 0.00 | 0.08 | 0.08 | 58 | 999.4 |
| 20260504225735 | 48 | 258 | 15.0 | 23.0 | 0.00 | 0.08 | 0.08 | 57 | 999.3 |
| 20260504225231 | 49 | 298 | 13.0 | 17.0 | 0.00 | 0.08 | 0.08 | 57 | 999.1 |
| 20260504224728 | 49 | 293 | 7.0 | 11.0 | 0.00 | 0.08 | 0.08 | 57 | 999.0 |
| 20260504224225 | 48 | 269 | 13.0 | 16.0 | 0.00 | 0.08 | 0.08 | 57 | 999.1 |
| 20260504223722 | 48 | 316 | 9.0 | 26.0 | 0.00 | 0.08 | 0.08 | 58 | 999.0 |
| 20260504223217 | 50 | 275 | 16.0 | 22.0 | 0.00 | 0.08 | 0.08 | 56 | 998.8 |
| 20260504222715 | 49 | 318 | 7.0 | 21.0 | 0.00 | 0.08 | 0.08 | 58 | 998.9 |
| 20260504222211 | 50 | 298 | 13.0 | 18.0 | 0.00 | 0.08 | 0.08 | 56 | 998.7 |
| 20260504221709 | 50 | 246 | 8.0 | 22.0 | 0.00 | 0.08 | 0.08 | 56 | 998.6 |
| 20260504221206 | 50 | 287 | 11.0 | 24.0 | 0.00 | 0.08 | 0.08 | 56 | 998.6 |
| 20260504220702 | 50 | 247 | 13.0 | 16.0 | 0.00 | 0.08 | 0.08 | 56 | 998.7 |
| 20260504220200 | 50 | 281 | 5.0 | 19.0 | 0.00 | 0.08 | 0.08 | 58 | 998.5 |
| 20260504215656 | 50 | 333 | 14.0 | 17.0 | 0.00 | 0.08 | 0.08 | 57 | 998.4 |
| 20260504215154 | 50 | 280 | 9.0 | 16.0 | 0.00 | 0.08 | 0.08 | 57 | 998.3 |
| 20260504214649 | 51 | 315 | 9.0 | 13.0 | 0.00 | 0.08 | 0.08 | 57 | 998.1 |
| 20260504214146 | 50 | 294 | 12.0 | 17.0 | 0.00 | 0.08 | 0.08 | 58 | 998.1 |
| 20260504213642 | 50 | 330 | 11.0 | 15.0 | 0.00 | 0.08 | 0.08 | 59 | 997.9 |
| 20260504213139 | 50 | 292 | 12.0 | 21.0 | 0.00 | 0.08 | 0.08 | 59 | 997.9 |
| 20260504212635 | 49 | 337 | 11.0 | 27.0 | 0.00 | 0.08 | 0.08 | 61 | 998.2 |
| 20260504212132 | 50 | 276 | 15.0 | 24.0 | 0.00 | 0.08 | 0.08 | 60 | 997.9 |
| 20260504211630 | 51 | 2 | 13.0 | 23.0 | 0.00 | 0.08 | 0.08 | 55 | 997.9 |
| 20260504211126 | 51 | 314 | 10.0 | 18.0 | 0.00 | 0.08 | 0.08 | 55 | 997.4 |
| 20260504210624 | 51 | 262 | 16.0 | 23.0 | 0.00 | 0.08 | 0.08 | 54 | 997.7 |
| 20260504210120 | 52 | 310 | 7.0 | 13.0 | 0.00 | 0.08 | 0.08 | 55 | 997.3 |
| 20260504205618 | 51 | 310 | 11.0 | 23.0 | 0.00 | 0.08 | 0.08 | 55 | 997.3 |
| 20260504205115 | 51 | 289 | 10.0 | 17.0 | 0.00 | 0.08 | 0.08 | 55 | 997.1 |
| 20260504204614 | 51 | 287 | 5.0 | 10.0 | 0.00 | 0.08 | 0.08 | 57 | 997.3 |
| 20260504204112 | 51 | 248 | 15.0 | 24.0 | 0.00 | 0.08 | 0.08 | 56 | 997.3 |
| 20260504203610 | 51 | 287 | 14.0 | 23.0 | 0.00 | 0.08 | 0.08 | 56 | 997.2 |
| 20260504203108 | 53 | 270 | 12.0 | 16.0 | 0.00 | 0.08 | 0.08 | 55 | 996.9 |
| 20260504202602 | 51 | 250 | 14.0 | 24.0 | 0.00 | 0.08 | 0.08 | 55 | 996.8 |
| 20260504202059 | 51 | 308 | 16.0 | 22.0 | 0.00 | 0.08 | 0.08 | 55 | 996.9 |
| 20260504201556 | 51 | 291 | 11.0 | 18.0 | 0.00 | 0.08 | 0.08 | 56 | 996.8 |
| 20260504201054 | 51 | 292 | 9.0 | 16.0 | 0.00 | 0.08 | 0.08 | 56 | 996.9 |
| 20260504200550 | 52 | 302 | 14.0 | 23.0 | 0.00 | 0.08 | 0.08 | 56 | 996.8 |
| 20260504200047 | 52 | 279 | 11.0 | 16.0 | 0.00 | 0.08 | 0.08 | 57 | 996.6 |
| 20260504195543 | 52 | 302 | 8.0 | 17.0 | 0.00 | 0.08 | 0.08 | 57 | 996.6 |
| 20260504195040 | 52 | 243 | 8.0 | 22.0 | 0.00 | 0.08 | 0.08 | 58 | 996.5 |
| 20260504194537 | 52 | 295 | 10.0 | 19.0 | 0.00 | 0.08 | 0.08 | 58 | 996.3 |
| 20260504194027 | 51 | 218 | 9.0 | 23.0 | 0.00 | 0.08 | 0.08 | 58 | 996.5 |
| 20260504193524 | 52 | 304 | 6.0 | 22.0 | 0.00 | 0.08 | 0.08 | 58 | 996.4 |
| 20260504193023 | 51 | 290 | 10.0 | 23.0 | 0.00 | 0.08 | 0.08 | 63 | 996.5 |
| 20260504192520 | 53 | 290 | 8.0 | 15.0 | 0.00 | 0.08 | 0.08 | 61 | 996.3 |
| 20260504192019 | 52 | 248 | 14.0 | 17.0 | 0.00 | 0.08 | 0.08 | 59 | 996.1 |
| 20260504191516 | 52 | 264 | 9.0 | 29.0 | 0.00 | 0.08 | 0.08 | 61 | 996.1 |
| 20260504191011 | 51 | 297 | 10.0 | 25.0 | 0.00 | 0.08 | 0.08 | 63 | 996.0 |
| 20260504190508 | 51 | 342 | 12.0 | 21.0 | 0.00 | 0.08 | 0.08 | 60 | 996.0 |
| 20260504190004 | 52 | 277 | 15.0 | 25.0 | 0.00 | 0.08 | 0.08 | 60 | 996.1 |
| 20260504185501 | 51 | 294 | 10.0 | 21.0 | 0.00 | 0.08 | 0.08 | 61 | 995.9 |
| 20260504184958 | 52 | 267 | 8.0 | 22.0 | 0.00 | 0.08 | 0.08 | 64 | 996.0 |
| 20260504184453 | 53 | 265 | 10.0 | 18.0 | 0.00 | 0.08 | 0.08 | 62 | 995.8 |
| 20260504183948 | 53 | 274 | 12.0 | 18.0 | 0.00 | 0.08 | 0.08 | 62 | 995.6 |
| 20260504183446 | 53 | 255 | 8.0 | 19.0 | 0.00 | 0.08 | 0.08 | 63 | 995.7 |
| 20260504182944 | 54 | 289 | 9.0 | 21.0 | 0.00 | 0.08 | 0.08 | 62 | 995.5 |
| 20260504182441 | 53 | 290 | 14.0 | 22.0 | 0.00 | 0.08 | 0.08 | 62 | 995.4 |
| 20260504181938 | 53 | 323 | 9.0 | 19.0 | 0.00 | 0.08 | 0.08 | 64 | 995.4 |
| 20260504181435 | 53 | 337 | 7.0 | 18.0 | 0.00 | 0.08 | 0.08 | 65 | 995.4 |
| 20260504180934 | 52 | 5 | 10.0 | 19.0 | 0.00 | 0.08 | 0.08 | 66 | 995.1 |
| 20260504180432 | 53 | 291 | 12.0 | 22.0 | 0.00 | 0.08 | 0.08 | 66 | 995.0 |
| 20260504175930 | 53 | 269 | 9.0 | 21.0 | 0.00 | 0.08 | 0.08 | 67 | 995.2 |
| 20260504175427 | 52 | 271 | 11.0 | 17.0 | 0.00 | 0.08 | 0.08 | 69 | 995.3 |
| 20260504174925 | 52 | 282 | 16.0 | 21.0 | 0.00 | 0.08 | 0.08 | 69 | 995.1 |
| 20260504174422 | 53 | 294 | 16.0 | 23.0 | 0.00 | 0.08 | 0.08 | 65 | 995.2 |
| 20260504173919 | 53 | 270 | 12.0 | 21.0 | 0.00 | 0.08 | 0.08 | 67 | 995.0 |
| 20260504173416 | 53 | 290 | 13.0 | 19.0 | 0.00 | 0.08 | 0.08 | 67 | 994.6 |
| 20260504172913 | 53 | 304 | 13.0 | 21.0 | 0.00 | 0.08 | 0.08 | 68 | 994.9 |
| 20260504172409 | 54 | 283 | 12.0 | 19.0 | 0.00 | 0.08 | 0.08 | 68 | 994.8 |
| 20260504171905 | 53 | 254 | 11.0 | 18.0 | 0.00 | 0.08 | 0.08 | 70 | 994.8 |
| 20260504171403 | 52 | 285 | 6.0 | 16.0 | 0.00 | 0.08 | 0.08 | 70 | 994.5 |
| 20260504170859 | 52 | 239 | 5.0 | 18.0 | 0.00 | 0.08 | 0.08 | 72 | 994.6 |
| 20260504170355 | 51 | 285 | 12.0 | 24.0 | 0.00 | 0.08 | 0.08 | 73 | 994.4 |
| 20260504160315 | 49 | 301 | 9.0 | 13.0 | 0.00 | 0.08 | 0.08 | 86 | 993.9 |
| 20260504150740 | 44 | 277 | 4.0 | 7.0 | 0.00 | 0.07 | 0.07 | 97 | 993.8 |
| 20260504150236 | 44 | 323 | 4.0 | 7.0 | 0.07 | 0.07 | 0.07 | 97 | 993.8 |
| 20260504141206 | 45 | 268 | 9.0 | 11.0 | 0.05 | 0.01 | 0.01 | 89 | 993.9 |
| 20260504140703 | 46 | 302 | 9.0 | 17.0 | 0.00 | 0.00 | 0.00 | 85 | 993.7 |
| 20260504140158 | 48 | 323 | 7.0 | 15.0 | 0.00 | 0.00 | 0.00 | 78 | 993.5 |
| 20260504130626 | 62 | 233 | 3.0 | 10.0 | 0.00 | 0.00 | 0.00 | 41 | 990.7 |
| 20260504130123 | 61 | 303 | 5.0 | 8.0 | 0.00 | 0.00 | 0.00 | 41 | 990.4 |